Shahre-Kord, Iran

2:25 AM IRST on October 02, 2016 (GMT +0330)
Shahre Kord

Weather History for OIFS - February, 2013

Change the Weather History Date:

Tuesday, February 5, 2013

  Actual Average Record
Temperature  
Mean Temperature 34 °F -  
Max Temperature 55 °F - - ()
Min Temperature 14 °F - - ()
Degree Days  
Heating Degree Days 30    
Moisture  
Dew Point 22 °F    
Average Humidity 68    
Maximum Humidity 87    
Minimum Humidity 27    
Precipitation  
Precipitation 0.00 in - - ()
Sea Level Pressure  
Sea Level Pressure 30.33 in    
Wind  
Wind Speed 1 mph ()    
Max Wind Speed 7 mph    
Max Gust Speed -    
Visibility 6.1 miles    
Events      
T = Trace of Precipitation, MM = Missing Value Source: Averaged Metar Reports

Daily Weather History Graph

Daily Weather History Graph

Search for Another Location

Airport or City:

Trip Planner

Search our weather history database for the weather conditions in past years. The results will help you decide how hot, cold, wet, or windy it might be!

Date:

Astronomy

Feb. 05, 2013 Rise Set
Actual Time 6:57 AM IRST 5:43 PM IRST
Civil Twilight 6:32 AM IRST 6:09 PM IRST
Nautical Twilight 6:03 AM IRST 6:38 PM IRST
Astronomical Twilight 5:34 AM IRST 7:07 PM IRST
Moon 2:08 AM IRST (2/5) 12:45 PM IRST (2/5)
Length of Visible Light 11h 36m
Length of Day
10h 45m
Waning Crescent, 30% of the Moon is Illuminated
Feb 5
Waning Crescent
Feb 10
New
Feb 18
First Quarter
Feb 25
Full
Mar 5
Last Quarter

Hourly Weather History & Observations

Time (IRST) Temp. Windchill Dew Point Humidity Pressure Visibility Wind Dir Wind Speed Gust Speed Precip Events Conditions
12:30 AM 21.2 °F - 17.6 °F 86% 30.33 in - Calm Calm - N/A   Clear
1:30 AM 19.4 °F - 15.8 °F 86% 30.33 in - Calm Calm - N/A   Clear
2:30 AM 17.6 °F - 14.0 °F 86% 30.33 in - Calm Calm - N/A   Clear
3:30 AM 18 °F - 14 °F 77% 30.40 in 6 mi Calm Calm - -  
3:30 AM 17.6 °F - 14.0 °F 86% 30.33 in - Calm Calm - N/A   Clear
4:30 AM 17.6 °F - 12.2 °F 79% 30.33 in - Calm Calm - N/A   Clear
5:30 AM 17.6 °F - 12.2 °F 79% 30.33 in - Calm Calm - N/A   Clear
6:30 AM 14.0 °F - 10.4 °F 86% 30.36 in - Calm Calm - N/A   Clear
7:30 AM 17.6 °F - 12.2 °F 79% 30.36 in - Calm Calm - N/A   Clear
8:30 AM 30.2 °F - 21.2 °F 69% 30.36 in - Calm Calm - N/A   Clear
9:30 AM 32 °F - 20 °F 49% 30.47 in 6 mi SSE 4.5 mph - -  
9:30 AM 32.0 °F 27.5 °F 19.4 °F 60% 30.36 in - SSE 4.6 mph - N/A   Clear
10:30 AM 33.8 °F - 23.0 °F 65% 30.36 in - Calm Calm - N/A   Clear
11:30 AM 39.2 °F 34.2 °F 24.8 °F 56% 30.36 in - South 6.9 mph - N/A   Clear
12:30 PM 42.8 °F 40.1 °F 24.8 °F 49% 30.33 in - South 4.6 mph - N/A   Clear
1:30 PM 46.4 °F - 26.6 °F 46% 30.30 in - Calm Calm - N/A   Clear
2:30 PM 50.0 °F - 28.4 °F 43% 30.27 in 6.2 mi Calm Calm - N/A   Partly Cloudy
3:30 PM 54 °F - 29 °F 27% 30.27 in 6 mi Calm Calm - -   Clear
3:30 PM 53.6 °F - 30.2 °F 41% 30.27 in - Calm Calm - N/A   Clear
4:30 PM 55.4 °F - 32.0 °F 41% 30.27 in 6.2 mi Calm Calm - N/A   Mostly Cloudy
5:30 PM 51.8 °F - 33.8 °F 50% 30.27 in 6.2 mi Calm Calm - N/A   Mostly Cloudy
6:30 PM 42.8 °F - 32.0 °F 66% 30.27 in - Calm Calm - N/A   Clear
7:30 PM 35.6 °F - 32.0 °F 87% 30.27 in - Calm Calm - N/A   Clear
8:30 PM 32.0 °F - 26.6 °F 80% 30.30 in - Calm Calm - N/A   Clear
9:30 PM 31 °F - 26 °F 76% 30.40 in 6 mi Calm Calm - -  
9:30 PM 30.2 °F - 26.6 °F 86% 30.33 in - Calm Calm - N/A   Clear
10:30 PM 30.2 °F - 24.8 °F 80% 30.33 in - Calm Calm - N/A   Clear
11:30 PM 30.2 °F - 24.8 °F 80% 30.33 in - Calm Calm - N/A   Clear